CAPE
0 0 0 0 0 0 0 0 0 0 0 0 0 0 0 0 0 0 0 0 0 0 0 0 0 0 0 0 0 0 0 0 0 0 0 5 8 5 1 3 2 1 0 0
0 0 0 0 0 0 0 0 0 0 0 0 0 0 0 0 0 0 0 0 0 0 0 0 0 0 0 0 0 0 0 0 0 1 0 0 1 7 15 3 2 1 3 0
0 0 0 0 0 0 0 0 0 0 0 0 0 0 0 0 0 0 0 0 0 0 0 0 0 0 0 0 0 0 0 0 2 4 1 0 0 1 3 2 3 0 0 0
0 0 0 0 0 0 0 0 0 0 0 0 0 0 0 0 0 0 0 0 0 0 0 0 0 0 0 0 0 0 0 0 8 7 7 1 0 0 0 0 0 0 0 5
0 0 0 0 0 0 0 0 0 0 0 0 0 0 0 0 0 0 0 0 0 0 0 0 0 0 0 0 0 0 0 2 13 21 20 15 13 6 0 0 0 0 0 0
0 0 0 0 0 0 0 0 0 0 0 0 0 0 0 0 0 0 0 0 0 0 0 0 0 0 0 0 0 0 0 0 11 24 30 24 21 5 0 0 0 0 2 4
0 0 0 0 0 0 0 0 0 0 0 0 0 0 0 0 0 0 0 0 0 0 0 0 0 0 0 0 0 0 0 0 0 7 27 29 42 17 2 0 9 20 1 5
0 0 0 0 0 0 0 0 0 0 0 0 0 0 0 0 0 0 0 0 0 0 0 0 0 0 0 0 0 0 0 0 0 0 0 0 10 10 8 12 33 49 14 12
0 0 0 0 0 0 0 0 0 0 0 0 0 0 0 0 0 0 0 0 0 0 0 0 0 0 0 0 0 0 0 0 0 0 0 0 0 0 3 0 12 22 19 15
0 0 0 0 0 0 0 0 0 0 0 0 0 0 0 0 0 0 0 0 0 0 0 0 0 0 0 0 0 0 0 0 0 0 0 0 0 0 0 0 0 0 0 1
0 0 0 0 0 0 0 0 0 0 0 0 0 0 0 0 0 0 0 0 0 0 0 0 0 0 0 0 0 0 0 0 0 0 0 0 0 0 0 0 0 0 0 0
0 0 0 0 0 0 0 0 0 0 0 0 0 0 0 0 0 0 0 0 0 0 0 0 0 0 0 0 0 0 0 0 0 0 0 0 0 0 0 0 0 0 0 0
0 0 0 0 0 0 0 0 0 0 0 0 0 0 0 0 0 0 0 0 0 0 0 0 0 0 0 0 0 0 0 0 0 0 0 0 0 0 0 0 1 0 0 1
0 0 0 0 0 0 0 0 0 0 0 0 0 0 0 0 0 0 0 0 0 0 0 0 0 0 0 0 0 0 0 0 0 0 0 0 0 0 0 0 0 0 0 0
0 0 0 0 0 0 0 0 0 0 0 0 0 0 0 0 0 0 0 0 0 0 0 0 0 0 0 0 0 0 0 0 0 0 0 0 0 0 0 0 0 0 0 0
0 0 0 0 0 0 0 0 0 0 0 0 0 0 0 0 0 0 0 0 0 0 0 0 0 0 0 0 0 0 0 0 0 0 0 0 0 0 0 0 0 0 0 0
0 0 0 0 0 0 0 0 0 0 0 0 0 0 0 0 0 0 0 0 0 0 0 0 0 0 0 0 0 0 0 0 0 0 0 0 0 0 0 0 0 0 0 0
0 0 0 0 0 0 0 0 0 0 0 0 0 0 0 0 0 0 0 0 0 0 0 0 0 0 0 0 0 0 0 0 0 0 0 0 0 0 0 0 0 0 0 0
0 0 0 0 0 0 0 0 0 0 0 0 0 0 0 0 0 0 0 0 0 0 0 0 0 0 0 0 0 0 0 0 0 0 0 0 0 0 0 0 0 0 0 0
0 0 0 0 0 0 0 0 0 0 0 0 0 0 0 0 0 0 0 0 0 0 0 0 0 0 0 0 0 0 0 0 0 0 0 0 0 0 0 0 0 0 0 0
0 0 0 0 0 0 0 0 0 0 0 0 0 0 0 0 0 0 0 0 0 0 0 0 0 0 0 0 0 0 0 0 0 0 0 0 0 0 0 0 0 0 0 0
0 0 0 0 0 0 0 0 0 0 0 0 0 0 0 0 0 0 0 0 0 0 0 0 0 0 0 0 0 0 0 0 0 0 0 0 0 0 0 0 0 0 0 0
0 0 0 0 0 0 0 0 0 0 0 0 0 0 0 0 0 0 0 0 0 0 0 0 0 0 0 0 0 0 0 0 0 0 0 0 0 0 0 0 0 0 0 0
0 0 0 0 0 0 0 0 0 0 0 0 0 0 0 0 0 0 0 0 0 0 0 0 0 0 0 0 0 0 0 0 0 0 0 0 0 0 0 0 0 0 0 0
0 0 0 0 0 0 0 0 0 0 0 0 0 0 0 0 0 0 0 0 0 0 0 0 0 0 0 0 0 0 0 0 0 0 0 0 0 0 0 0 0 0 0 0
0 0 0 0 0 0 0 0 0 0 0 0 0 0 0 0 0 0 0 0 0 0 0 0 0 0 0 0 0 0 0 0 0 0 0 0 0 0 0 0 0 0 0 0
CIN
0 0 0 0 0 0 0 0 0 0 0 0 0 0 0 0 0 0 0 0 0 0 0 0 0 0 0 0 -2 -1 0 0 0 0 0 -8 -431 -27 -28 -33 -30 -34 0 0
0 0 0 0 0 0 0 0 0 0 0 0 0 0 0 0 0 0 0 0 0 0 0 0 0 0 0 0 0 0 0 0 0 -360 0 0 -5 -443 -389 -64 -35 -36 -46 -10
0 0 0 0 0 0 0 0 0 0 0 0 0 0 0 0 0 0 0 0 0 0 0 0 0 0 0 0 0 0 0 0 -549 -475 -361 0 0 -5 -6 -14 -25 -21 -18 -5
0 0 0 0 0 0 0 0 0 0 0 0 0 0 0 0 0 0 0 0 0 0 0 0 0 0 0 0 0 0 0 0 -525 -501 -499 -382 -54 0 0 0 0 0 0 -37
0 0 0 0 0 0 0 0 0 0 0 0 0 0 0 0 0 0 0 0 0 0 0 0 0 0 0 0 0 0 0 -359 -585 -539 -480 -465 -436 -454 0 0 0 0 0 -3
0 0 0 0 0 0 0 0 0 0 0 0 0 0 0 0 0 0 0 0 0 0 0 0 0 0 0 0 0 0 0 0 -633 -533 -485 -478 -402 -368 0 0 0 -5 -52 -56
0 0 0 0 0 0 0 0 0 0 0 0 0 0 0 0 0 0 0 0 0 0 0 0 0 0 0 0 0 0 0 0 0 -246 -491 -446 -392 -386 -147 0 -249 -243 -31 -56
0 0 0 0 0 0 0 0 0 0 0 0 0 0 0 0 0 0 0 0 0 0 0 0 0 0 0 0 0 0 0 0 0 0 0 -39 -466 -401 -377 -333 -230 -210 -283 -111
0 0 0 0 0 0 0 0 0 0 0 0 0 0 0 0 0 0 0 0 0 0 0 0 0 0 0 0 0 0 0 0 0 0 0 0 0 0 -347 0 -253 -278 -259 -252
0 0 0 0 0 0 0 0 0 0 0 0 0 0 0 0 0 0 0 0 0 0 0 0 0 0 0 0 0 0 0 0 0 0 0 0 0 0 0 0 0 0 0 -25
0 0 0 0 0 0 0 0 0 0 0 0 0 0 0 0 0 0 0 0 0 0 0 0 0 0 0 0 0 0 0 0 0 0 0 0 0 0 0 0 0 0 0 0
0 0 0 0 0 0 0 0 0 0 0 0 0 0 0 0 0 0 0 0 0 0 0 0 0 0 0 0 0 0 0 0 0 0 0 0 0 0 0 0 0 0 0 0
0 0 0 0 0 0 0 0 0 0 0 0 0 0 0 0 0 0 0 0 0 0 0 0 0 0 0 0 0 0 0 0 0 0 0 0 0 0 0 0 0 0 0 0
0 0 0 0 0 0 0 0 0 0 0 0 0 0 0 0 0 0 0 0 0 0 0 0 0 0 0 0 0 0 0 0 0 0 0 0 0 0 0 0 0 0 0 0
0 0 0 0 0 0 0 0 0 0 0 0 0 0 0 0 0 0 0 0 0 0 0 0 0 0 0 0 0 0 0 0 0 0 0 0 0 0 0 0 0 0 0 0
0 0 0 0 0 0 0 0 0 0 0 0 0 0 0 0 0 0 0 0 0 0 0 0 0 0 0 0 0 0 0 0 0 0 0 0 0 0 0 0 0 0 0 0
0 0 0 0 0 0 0 0 0 0 0 0 0 0 0 0 0 0 0 0 0 0 0 0 0 0 0 0 0 0 0 0 0 0 0 0 0 0 0 0 0 0 0 0
0 0 0 0 0 0 0 0 0 0 0 0 0 0 0 0 0 0 0 0 0 0 0 0 0 0 0 0 0 0 0 0 0 0 0 0 0 0 0 0 0 0 0 0
0 0 0 0 0 0 0 0 0 0 0 0 0 0 0 0 0 0 0 0 0 0 0 0 0 0 0 0 0 0 0 0 0 0 0 0 0 0 0 0 0 0 0 0
0 0 0 0 0 0 0 0 0 0 0 0 0 0 0 0 0 0 0 0 0 0 0 0 0 0 0 0 0 0 0 0 0 0 0 0 0 0 0 0 0 0 0 0
0 0 0 0 0 0 0 0 0 0 0 0 0 0 0 0 0 0 0 0 0 0 0 0 0 0 0 0 0 0 0 0 0 0 0 0 0 0 0 0 0 0 0 0
0 0 0 0 0 0 0 0 0 0 0 0 0 0 0 0 0 0 0 0 0 0 0 0 0 0 0 0 0 0 0 0 0 0 0 0 0 0 0 0 0 0 0 0
0 0 0 0 0 0 0 0 0 0 0 0 0 0 0 0 0 0 0 0 0 0 0 0 0 0 0 0 0 0 0 0 0 0 0 0 0 0 0 0 0 0 0 0
0 0 0 0 0 0 0 0 0 0 0 0 0 0 0 0 0 0 0 0 0 0 0 0 0 0 0 0 0 0 0 0 0 0 0 0 0 0 0 0 0 0 0 0
0 0 0 0 0 0 0 0 0 0 0 0 0 0 0 0 0 0 0 0 0 0 0 0 0 0 0 0 0 0 0 0 0 0 0 0 0 0 0 0 0 0 0 0
0 0 0 0 0 0 0 0 0 0 0 0 0 0 0 0 0 0 0 0 0 0 0 0 0 0 0 0 0 0 0 0 0 0 0 0 0 0 0 0 0 0 0 0
Wind_Speed
25 27 30 25 25 23 22 21 22 22 25 30 36 37 33 28 27 30 30 28 27 34 34 29 24 15 12 10 11 11 11 10 9 8 8 8 9 9 8 8 8 8 9 9
28 36 28 25 26 26 24 23 26 23 21 26 34 43 39 34 34 34 33 34 31 30 34 33 28 21 14 13 12 11 12 11 11 10 10 10 10 11 12 11 11 10 10 10
33 30 26 27 28 26 27 27 25 25 22 25 30 43 42 36 36 38 38 36 36 32 33 30 27 23 19 15 14 13 13 12 12 11 12 12 11 13 14 15 14 13 13 13
31 29 27 29 31 26 27 23 21 21 22 30 26 43 37 37 42 40 42 41 42 38 37 35 31 27 21 16 18 16 14 14 13 12 12 12 11 13 15 15 15 14 13 13
34 27 28 32 30 25 29 23 24 24 25 27 26 30 33 32 38 36 39 38 40 38 37 37 31 27 23 21 19 18 16 14 14 13 13 13 14 15 17 16 15 15 15 15
29 23 28 31 26 23 19 21 22 22 24 35 29 28 32 27 30 32 33 33 33 33 33 32 28 26 26 23 20 18 16 15 14 13 14 15 17 17 16 16 16 15 15 15
32 30 26 23 27 24 23 21 27 32 33 35 24 29 33 30 34 32 32 28 29 29 24 22 19 19 21 21 19 16 15 16 15 15 15 16 16 17 18 17 17 18 17 17
37 42 29 26 27 28 27 25 27 34 34 35 29 35 37 32 40 35 33 30 25 23 21 20 17 16 16 16 16 15 16 16 15 16 16 16 17 17 18 18 18 17 19 19
38 38 28 24 24 22 29 33 24 26 26 31 33 37 38 34 33 31 29 25 23 20 17 15 15 16 15 15 15 15 15 17 17 18 17 17 17 16 16 16 15 17 18 19
31 37 28 25 22 28 31 22 30 30 35 37 34 37 36 24 22 23 24 22 20 19 19 18 17 16 15 15 14 13 14 14 15 15 15 15 15 15 15 15 16 17 19 18
29 32 33 25 33 31 27 31 30 27 31 34 37 39 29 28 22 21 23 21 20 19 18 16 15 14 14 14 13 13 12 11 12 14 14 14 15 14 14 15 15 15 16 17
29 31 36 36 28 29 33 33 35 37 37 38 38 41 24 24 23 20 24 22 18 15 14 13 12 12 13 12 12 12 13 14 14 13 14 14 14 14 13 13 13 14 16 17
29 35 39 37 37 32 38 33 34 33 32 40 40 40 29 29 29 25 24 21 18 16 13 13 15 16 14 14 15 16 16 16 16 15 16 15 14 13 12 13 13 14 15 16
32 35 42 48 44 31 40 35 34 33 43 43 55 42 31 28 29 25 19 17 17 17 17 18 19 17 17 17 17 17 17 16 16 15 14 13 12 12 13 13 13 14 15 15
35 43 38 39 35 33 37 38 35 36 40 40 59 46 38 31 24 21 21 20 22 23 23 21 20 19 18 18 19 18 16 15 14 13 12 12 11 11 11 12 13 13 14 14
36 40 37 40 35 35 40 39 39 41 43 48 50 62 32 29 28 30 30 28 28 27 26 24 21 19 20 20 19 17 15 12 11 11 11 10 10 10 11 12 12 13 13 12
38 39 40 48 34 34 47 42 38 42 43 44 49 61 33 33 33 33 32 28 28 29 28 27 24 21 19 18 16 14 12 11 11 10 10 10 10 12 13 12 11 11 11 11
36 38 37 37 35 48 46 34 40 43 47 43 58 53 39 35 33 32 27 27 27 27 26 25 24 23 21 19 16 15 13 11 11 10 9 10 10 11 10 10 10 10 10 9
35 35 39 44 46 45 54 40 35 38 63 43 57 57 47 41 40 49 30 27 28 28 28 27 27 26 22 17 13 11 11 11 11 10 10 9 9 8 8 8 8 8 7 8
29 31 32 31 38 42 40 37 28 24 54 35 46 57 41 33 45 54 30 29 30 30 29 29 27 24 19 15 12 12 13 12 12 11 10 9 8 8 8 7 6 6 5 7
29 29 36 34 36 37 31 20 15 25 30 21 27 38 33 29 32 30 25 26 26 27 27 25 22 20 17 14 13 14 13 13 12 10 10 10 9 8 7 5 6 5 6 8
30 28 30 30 36 46 21 19 22 24 22 24 22 20 19 22 24 26 27 25 24 24 22 21 19 18 17 13 13 13 13 11 10 10 11 10 8 8 6 6 5 5 6 8
37 34 32 33 35 20 18 23 23 24 27 28 27 26 26 27 27 27 28 28 28 26 25 23 18 16 16 13 12 13 12 11 10 10 10 9 8 8 7 7 6 7 8 10
29 27 31 30 36 35 27 24 23 23 25 24 26 26 25 27 27 27 26 26 24 23 22 19 17 16 15 15 14 14 11 9 9 10 10 9 9 9 9 8 8 9 11 12
29 28 33 39 36 29 33 31 27 26 25 24 24 26 27 28 28 27 26 23 22 20 18 16 14 15 14 14 13 11 10 9 10 10 10 10 10 11 10 10 11 12 13 14
33 34 36 41 32 33 30 24 23 23 23 23 23 24 23 24 24 24 24 23 21 20 18 16 14 14 13 13 12 11 10 10 10 11 11 11 12 12 12 11 13 14 14 16
Wind_Direction
241 240 241 245 251 261 264 257 268 264 262 261 256 255 258 263 263 259 260 261 263 259 259 267 270 267 260 246 225 226 226 228 230 238 263 271 261 276 270 279 283 289 295 288
240 244 248 250 252 255 258 261 264 272 271 265 263 257 258 262 261 261 262 262 264 267 265 267 271 271 252 237 236 245 243 249 241 249 261 275 282 286 284 280 282 284 287 289
241 251 248 249 250 251 257 259 265 269 271 272 272 263 259 263 263 262 262 264 265 268 269 271 273 273 270 251 244 251 253 249 251 253 274 285 290 296 294 293 290 286 288 289
248 249 244 248 250 249 252 263 267 271 269 268 268 265 262 262 262 262 261 263 264 267 267 269 272 275 274 257 271 269 267 261 258 258 265 267 271 278 290 291 294 290 287 289
244 246 245 246 250 250 257 262 267 272 270 273 271 272 268 265 264 265 264 266 265 268 269 269 271 274 277 276 272 273 273 269 265 260 261 265 277 288 298 298 295 297 297 294
248 257 248 250 252 248 256 261 268 273 272 268 266 266 270 265 267 270 268 269 270 273 273 275 273 273 277 281 279 273 270 273 272 268 268 272 279 286 290 292 294 297 299 300
244 250 252 252 246 247 246 244 260 262 262 266 276 270 269 269 266 268 268 273 276 276 278 279 279 276 279 280 282 280 275 277 280 278 275 276 276 281 283 287 291 298 301 304
238 245 243 245 248 243 240 237 255 260 266 267 273 271 269 270 260 268 269 269 278 281 281 283 285 285 287 285 287 285 285 285 286 286 285 285 285 287 288 290 293 296 301 305
239 245 249 248 248 236 243 244 254 268 277 272 268 270 272 270 264 264 268 271 274 283 284 288 291 292 291 292 293 293 292 294 295 294 295 295 295 293 293 294 295 298 303 307
245 244 252 247 249 248 244 240 250 259 262 266 270 267 263 274 269 267 269 272 273 278 281 287 292 295 298 299 300 302 303 303 307 308 307 305 302 300 299 301 300 302 307 309
240 245 248 243 242 240 243 241 251 259 261 265 269 268 273 271 274 268 270 275 276 278 285 290 295 300 303 305 305 307 309 310 312 317 319 322 318 312 310 309 310 311 316 317
240 246 243 242 253 251 248 247 243 251 257 263 268 268 284 274 273 278 274 278 279 285 290 295 299 304 306 306 306 305 306 309 311 314 319 320 319 320 319 320 322 324 323 325
230 244 243 247 252 252 247 245 247 252 261 259 261 266 275 273 277 281 282 283 285 284 287 292 296 297 296 297 297 298 302 305 308 310 310 311 313 318 321 323 326 327 329 330
232 245 241 241 248 247 249 243 249 248 255 260 257 266 274 279 279 280 283 285 287 286 286 292 294 292 293 294 295 297 298 301 304 308 309 310 312 315 318 322 324 327 331 333
234 242 245 251 255 249 251 245 245 250 251 257 246 267 271 276 276 273 281 289 288 286 288 290 289 289 289 291 293 295 296 297 301 305 308 310 316 320 324 326 327 328 330 334
234 244 244 249 254 254 253 249 245 244 254 260 265 260 275 272 275 273 278 285 283 283 285 286 289 290 288 289 289 288 289 290 294 297 300 306 312 313 315 319 321 323 327 335
234 239 246 247 253 257 256 246 246 253 254 257 261 249 273 275 273 271 274 276 278 281 283 285 289 289 287 285 283 280 279 288 288 289 293 296 303 306 310 314 318 323 328 334
233 238 244 249 247 251 260 257 254 257 259 257 259 262 270 272 272 274 273 276 278 280 283 286 288 290 287 284 277 279 278 281 283 282 283 292 296 299 304 311 313 322 325 332
236 236 247 246 246 258 258 259 257 255 254 258 248 251 264 272 277 270 277 276 278 282 283 283 285 288 289 281 272 265 267 270 272 271 275 283 288 291 297 303 306 318 322 330
235 236 238 246 247 248 262 258 255 263 260 263 257 244 268 272 270 265 284 284 284 284 284 285 286 286 281 273 261 258 261 264 261 264 271 275 276 275 282 284 289 303 313 322
228 232 235 243 249 257 258 267 222 237 271 283 272 268 269 265 274 286 294 293 292 292 291 293 289 280 273 264 252 258 261 258 268 269 275 278 277 276 271 272 289 289 305 318
227 226 234 241 248 253 251 239 230 262 276 285 287 288 287 285 287 288 291 294 296 296 297 297 295 290 283 267 255 252 247 257 262 265 268 266 268 271 264 261 270 277 293 309
238 235 237 235 242 279 252 256 260 275 278 282 281 285 286 287 290 291 291 293 294 294 294 297 296 293 291 280 266 257 259 257 259 259 260 262 268 264 260 258 259 276 291 301
243 241 243 251 251 251 257 264 269 278 282 286 285 286 288 288 291 293 296 296 298 298 298 301 299 294 291 288 281 278 267 260 253 258 259 259 257 261 265 269 275 283 292 298
247 243 249 252 256 260 260 264 273 280 282 284 287 288 291 290 291 294 295 297 298 300 304 305 302 299 297 293 289 283 272 264 266 266 262 259 260 264 268 279 284 290 298 301
252 252 245 250 255 260 266 267 275 277 280 284 285 290 297 297 293 296 296 299 300 301 304 303 304 299 297 296 293 287 277 269 267 266 263 261 262 266 271 276 291 301 304 310